Home > Weather > Yverdon-les-Bains > Past weeks

Flag for Switzerland Past Weather in Yverdon-les-Bains, Vaud, Switzerland — Yesterday and Last 2 Weeks

Now
83 °F

Warm.


Feels Like: 85 °F
Forecast: 58 / 88 °F
Wind: 1 mph from Southeast

Location: Payerne

Current Time: Aug 25, 2016 at 1:40:27 PM

Latest Report: Aug 25, 2016 at 1:00 PM


Visibility: N/A

Pressure: 30.01 "Hg

Humidity: 59%

Dew Point: 67 °F

Location of Yverdon-les-BainsLocation

Past Weather in Yverdon-les-Bains — Graph

°F

Yverdon-les-Bains Temperature Yesterday

Maximum temperature yesterday: 83 °F (at 5:00 PM)
Minimum temperature yesterday: 56 °F (at 6:00 AM)
Average temperature yesterday: 69 °F

High & Low Weather Summary for the Past Weeks

 TemperatureHumidityPressure
High85 °F (Aug 14, 3:00 PM)96% (Aug 19, 3:00 AM)30.41 "Hg (Aug 19, 3:00 AM)
Low45 °F (Aug 11, 6:00 AM)34% (Aug 10, 4:00 PM)29.75 "Hg (Aug 17, 6:00 PM)
Average66 °F73%30.11 "Hg
* Reported Aug 10 12:00 PM — Aug 25 12:00 PM, Yverdon-les-Bains, Weather by CustomWeather, © 2016

Note: Actual official high and low records may vary slightly from our data, if they occured in-between our weather recording intervals... More about our weather records

Advertising

Yverdon-les-Bains Weather History for the Previous 24 Hours

Scroll right to see more
 ConditionsComfort  
Time TempWeatherWind HumidityBarometerVisibility
12:00 PM
Thu, Aug 25
78 °FWarm.2 mph65%30.04 "HgN/A
11:00 AM75 °FSunny.2 mph70%30.06 "Hg19 mi
10:00 AM71 °FMild.1 mph76%30.08 "HgN/A
9:00 AM68 °FMild.2 mph85%30.09 "HgN/A
8:00 AM64 °FSunny.No wind93%30.10 "Hg16 mi
7:00 AM62 °FMild.5 mph95%30.11 "HgN/A
6:00 AM63 °FMild.1 mph94%30.09 "HgN/A
5:00 AM63 °FMild.3 mph95%30.09 "HgN/A
4:00 AM64 °FMild.5 mph93%30.09 "HgN/A
3:00 AM65 °FMild.3 mph91%30.09 "HgN/A
2:00 AM64 °FMild.1 mph94%30.10 "HgN/A
1:00 AM65 °FMild.2 mph93%30.09 "HgN/A
12:00 AM67 °FMild.2 mph89%30.09 "HgN/A
11:00 PM
Wed, Aug 24
67 °FClear.No wind89%30.09 "Hg19 mi
10:00 PM69 °FMild.No wind84%30.09 "HgN/A
9:00 PM72 °FMild.1 mph84%30.07 "HgN/A
8:00 PM80 °FSunny.2 mph62%30.03 "Hg22 mi
7:00 PM82 °FWarm.3 mph51%30.03 "HgN/A
6:00 PM83 °FWarm.3 mph49%30.03 "HgN/A
5:00 PM83 °FWarm.3 mph50%30.05 "HgN/A
4:00 PM82 °FWarm.2 mph50%30.06 "HgN/A
3:00 PM82 °FWarm.2 mph52%30.08 "HgN/A
2:00 PM80 °FWarm.3 mph58%30.10 "HgN/A
1:00 PM77 °FWarm.3 mph65%30.13 "HgN/A
Weather by CustomWeather, © 2016

See weather overviewHow to use our weather pages